Location: Csohesd
(46.2500°N, 22.6167°E)
Time: 13:29:50
(UTC+00:00)

Cosmos 332 Rocket - Pass Details

Date: 21 October 2021
Orbit: 682 x 703 km, 74.0° (Epoch: 07 December)

Event Time Altitude Azimuth Distance (km) Brightness Sun altitude
Rises 17:18:03 0° 192° (SSW) 3,074 7.2 -18.9°
Reaches altitude 10° 17:20:22 10° 190° (S) 2,159 6.4 -19.3°
Maximum altitude 17:25:12 68° 108° (ESE) 755 3.7 -20.2°
Enters shadow 17:29:03 16° 28° (NNE) 1,780 5.7 -20.8°
